Home > Weather > Iasi > Past weeks

Flag for Romania Weather for the Past 2 Weeks in Iasi, Romania

Now
43 °F

Clear.


Feels Like: 39 °F
Forecast: 28 / 49 °F
Wind: 6 mph from Southwest

Location: Iasi Airport

Current Time: Feb 11, 2016 at 7:59:47 PM

Latest Report: Feb 11, 2016 at 7:30 PM


Visibility: 10 mi

Pressure: 29.74 "Hg

Humidity: 42%

Dew point: 21 °F

Location of IasiLocation

Historic Weather in Iasi — Graph

°F

Iasi Temperature Yesterday

Maximum temperature yesterday: 50 °F (at 5:30 PM)
Minimum temperature yesterday: 36 °F (at 2:00 AM)
Average temperature yesterday: 43 °F

High & Low Weather Summary for the Past Weeks

 TemperatureHumidityPressure
High54 °F (Jan 31, 4:00 PM)100% (Feb 2, 6:30 PM)30.36 "Hg (Feb 2, 6:30 PM)
Low25 °F (Feb 7, 6:00 AM)35% (Feb 11, 12:00 PM)29.39 "Hg (Feb 11, 12:00 AM)
Average38 °F74%30.04 "Hg
* Reported Jan 27 6:00 PM — Feb 11 6:30 PM, Iasi, Weather by CustomWeather, © 2016

Note: Actual official high and low records may vary slightly from our data, if they occured in-between our weather recording intervals... More about our weather records

Advertising

Iasi Weather History for the Previous 24 Hours

 ConditionsComfort  
Time TempWeatherWind HumidityBarometerVisibility
6:30 PM
Thu, Feb 11
45 °FPassing clouds.7 mph39%29.71 "HgN/A
6:00 PM45 °FClear.7 mph42%29.71 "Hg10 mi
5:30 PM46 °FPassing clouds.9 mph40%29.68 "HgN/A
5:00 PM48 °FPassing clouds.10 mph37%29.68 "HgN/A
4:30 PM50 °FSunny.12 mph35%29.65 "Hg10 mi
4:00 PM50 °FPassing clouds.8 mph35%29.65 "HgN/A
3:30 PM50 °FPassing clouds.5 mph37%29.62 "HgN/A
3:00 PM50 °FPassing clouds.6 mph37%29.62 "HgN/A
2:30 PM50 °FPassing clouds.8 mph43%29.59 "HgN/A
2:00 PM50 °FSunny.9 mph43%29.59 "Hg10 mi
1:30 PM48 °FPassing clouds.9 mph46%29.59 "HgN/A
1:00 PM46 °FSunny.13 mph46%29.59 "Hg10 mi
12:30 PM48 °FPassing clouds.14 mph37%29.56 "HgN/A
12:00 PM50 °FSunny.14 mph35%29.56 "Hg10 mi
11:30 AM48 °FPassing clouds.14 mph37%29.56 "HgN/A
11:00 AM48 °FPassing clouds.14 mph37%29.53 "HgN/A
10:30 AM48 °FSunny.15 mph40%29.50 "Hg10 mi
10:00 AM46 °FPassing clouds.13 mph46%29.50 "HgN/A
9:30 AM45 °FSunny.14 mph46%29.47 "Hg10 mi
9:00 AM45 °FSunny.13 mph46%29.47 "Hg10 mi
8:00 AM45 °FPassing clouds.10 mph53%29.45 "HgN/A
7:30 AM45 °FSunny.8 mph66%29.42 "Hg10 mi
7:00 AM45 °FClear.7 mph71%29.42 "Hg10 mi
6:30 AM46 °FPassing clouds.8 mph71%29.42 "HgN/A
6:00 AM46 °FPassing clouds.7 mph76%29.42 "HgN/A
5:30 AM46 °FClear.7 mph76%29.39 "Hg10 mi
5:00 AM46 °FPassing clouds.7 mph82%29.39 "HgN/A
4:00 AM46 °FPartly cloudy.6 mph82%29.39 "HgN/A
3:00 AM46 °FLight rain. Partly cloudy.8 mph87%29.39 "HgN/A
2:00 AM46 °FLight rain. Partly cloudy.12 mph82%29.39 "HgN/A
1:00 AM48 °FLight rain. Passing clouds.14 mph76%29.39 "HgN/A
12:00 AM45 °FLight rain. Passing clouds.15 mph81%29.39 "Hg6 mi
11:00 PM
Wed, Feb 10
48 °FPassing clouds.15 mph76%29.42 "HgN/A
10:00 PM50 °FPassing clouds.16 mph71%29.42 "HgN/A
9:00 PM50 °FPassing clouds.16 mph71%29.45 "HgN/A
8:30 PM50 °FPassing clouds.17 mph71%29.45 "HgN/A
8:00 PM50 °FPassing clouds.18 mph71%29.45 "HgN/A
7:30 PM50 °FPassing clouds.17 mph71%29.45 "HgN/A
7:00 PM50 °FPassing clouds.20 mph71%29.45 "HgN/A
Weather by CustomWeather, © 2016

See weather overviewHow to use our weather pages